Weather History for KAQW - September, 2012

Change the Weather History Date:

Friday, September 7, 2012

  Actual Average Record
Temperature  
Mean Temperature 71 °F -  
Max Temperature 82 °F 73 °F 90 °F (2007)
Min Temperature 60 °F 50 °F 42 °F (2000)
Cooling Degree Days 6    
Growing Degree Days 21 (Base 50)    
Moisture  
Dew Point 62 °F    
Average Humidity 86    
Maximum Humidity 100    
Minimum Humidity 44    
Precipitation  
Precipitation 0.00 in - - ()
Sea Level Pressure  
Sea Level Pressure 29.91 in    
Wind  
Wind Speed 0 mph (SSE)    
Max Wind Speed 4 mph    
Max Gust Speed -    
Visibility 7 miles    
Events Fog    
Averages and records for this station are not official NWS values.
T = Trace of Precipitation, MM = Missing Value Source: NWS Daily Summary

Daily Weather History Graph

Daily Weather History Graph

Search for Another Location

Airport or City:

Trip Planner

Search our weather history database for the weather conditions in past years. The results will help you decide how hot, cold, wet, or windy it might be!

Date:

Astronomy

Sep. 07, 2012 Rise Set
Actual Time 6:24 AM EDT 7:15 PM EDT
Civil Twilight 5:55 AM EDT 7:44 PM EDT
Nautical Twilight 5:21 AM EDT 8:18 PM EDT
Astronomical Twilight 4:46 AM EDT 8:53 PM EDT
Moon 10:59 PM EDT (9/7) 1:23 PM EDT (9/7)
Length of Visible Light 13h 48m
Length of Day
12h 51m
Waning Gibbous, 58% of the Moon is Illuminated
Sep 7
Waning Gibbous
Sep 8
Last Quarter
Sep 15
New
Sep 22
First Quarter
Sep 29
Full

Hourly Weather History & Observations

Time (EDT) Temp. Heat Index Dew Point Humidity Pressure Visibility Wind Dir Wind Speed Gust Speed Precip Events Conditions
12:52 AM 64.0 °F - 63.0 °F 96% 29.89 in 10.0 mi Calm Calm - N/A   Clear
1:52 AM 64.9 °F - 64.0 °F 97% 29.89 in 10.0 mi Calm Calm - N/A   Mostly Cloudy
2:52 AM 64.0 °F - 62.1 °F 93% 29.88 in 9.0 mi Calm Calm - N/A   Mostly Cloudy
3:26 AM 64.4 °F - 62.6 °F 94% 29.90 in 9.0 mi Calm Calm - N/A   Scattered Clouds
3:52 AM 64.0 °F - 63.0 °F 96% 29.89 in 9.0 mi Calm Calm - N/A   Scattered Clouds
4:01 AM 62.6 °F - 62.6 °F 100% 29.90 in 8.0 mi Calm Calm - N/A   Mostly Cloudy
4:37 AM 62.6 °F - 62.6 °F 100% 29.91 in 8.0 mi Calm Calm - N/A   Mostly Cloudy
4:45 AM 62.6 °F - 60.8 °F 94% 29.91 in 7.0 mi Calm Calm - N/A   Mostly Cloudy
4:52 AM 63.0 °F - 62.1 °F 97% 29.91 in 9.0 mi Calm Calm - N/A   Mostly Cloudy
5:21 AM 62.6 °F - 62.6 °F 100% 29.91 in 6.0 mi Calm Calm - N/A   Scattered Clouds
5:52 AM 61.0 °F - 60.1 °F 97% 29.92 in 8.0 mi Calm Calm - N/A   Partly Cloudy
6:01 AM 60.8 °F - 60.8 °F 100% 29.92 in 2.5 mi Calm Calm - N/A   Scattered Clouds
6:11 AM 60.8 °F - 59.0 °F 94% 29.92 in 4.0 mi Calm Calm - N/A   Mostly Cloudy
6:19 AM 60.8 °F - 60.8 °F 100% 29.92 in 10.0 mi Calm Calm - N/A   Mostly Cloudy
6:39 AM 60.8 °F - 60.8 °F 100% 29.93 in 1.2 mi Calm Calm - N/A   Overcast
6:44 AM 60.8 °F - 60.8 °F 100% 29.93 in 0.2 mi Calm Calm - N/A Fog Fog
6:52 AM 62.1 °F - 61.0 °F 96% 29.93 in 0.2 mi Calm Calm - N/A Fog Fog
8:19 AM 64.4 °F - 62.6 °F 94% 29.95 in 0.5 mi Calm Calm - N/A Fog Fog
8:27 AM 64.4 °F - 64.4 °F 100% 29.95 in 0.2 mi Calm Calm - N/A Fog Fog
8:45 AM 64.4 °F - 62.6 °F 94% 29.95 in 1.0 mi Calm Calm - N/A   Mist
8:47 AM 64.4 °F - 62.6 °F 94% 29.95 in 2.0 mi Calm Calm - N/A   Mostly Cloudy
8:52 AM 64.9 °F - 63.0 °F 93% 29.95 in 4.0 mi Calm Calm - N/A   Mostly Cloudy
9:09 AM 66.2 °F - 64.4 °F 94% 29.95 in 7.0 mi Calm Calm - N/A   Partly Cloudy
9:52 AM 71.1 °F - 64.0 °F 78% 29.94 in 10.0 mi Calm Calm - N/A   Scattered Clouds
10:52 AM 73.9 °F - 63.0 °F 68% 29.94 in 10.0 mi Calm Calm - N/A   Overcast
11:52 AM 75.9 °F - 60.1 °F 58% 29.95 in 10.0 mi Calm Calm - N/A   Overcast
12:52 PM 79.0 °F - 57.0 °F 47% 29.93 in 10.0 mi Calm Calm - N/A   Mostly Cloudy
1:52 PM 79.0 °F - 55.0 °F 44% 29.92 in 10.0 mi Calm Calm - N/A   Mostly Cloudy
2:52 PM 82.0 °F 82.0 °F 57.9 °F 44% 29.90 in 10.0 mi Variable 3.5 mph - N/A   Partly Cloudy
3:52 PM 80.1 °F 81.5 °F 63.0 °F 56% 29.89 in 10.0 mi Calm Calm - N/A   Mostly Cloudy
4:52 PM 82.0 °F 82.0 °F 57.9 °F 44% 29.88 in 10.0 mi Calm Calm - N/A   Clear
5:52 PM 77.0 °F - 66.9 °F 71% 29.88 in 10.0 mi Calm Calm - N/A   Clear
6:52 PM 72.0 °F - 64.0 °F 76% 29.89 in 10.0 mi Calm Calm - N/A   Clear
7:52 PM 68.0 °F - 64.9 °F 90% 29.90 in 10.0 mi Calm Calm - N/A   Partly Cloudy
8:52 PM 66.0 °F - 64.0 °F 93% 29.90 in 10.0 mi Calm Calm - N/A   Clear
9:52 PM 64.9 °F - 62.1 °F 90% 29.88 in 10.0 mi Calm Calm - N/A   Clear
10:52 PM 66.0 °F - 63.0 °F 90% 29.87 in 10.0 mi SSE 3.5 mph - N/A   Clear
11:52 PM 64.9 °F - 63.0 °F 93% 29.85 in 10.0 mi Calm Calm - N/A   Clear